OneWeb SL0156

operational
NORAD ID: 48052 Int'l Des: 2021-025 Owner: ONEWEBN Country: UK Constellation: oneweb
LEOCIRCULARPOLARONEWEB_TYPE

About OneWeb SL0156

Description loading...

Live Position

Loading 3D Globe...

Upcoming Passes

Altitude History

Altitude vs Time

uPlot chart will show altitude changes over time

Two-Line Element Set

1 48052U 21025L 25258.57411064 -.00000134 00000-0 -40289-3 0 9995
2 48052 87.9037 14.7613 0001904 102.4100 257.7242 13.13469951217527
Epoch: Sep 15, 2025 • Age: 14 hours

Current Status

Altitude 1212.8 km
Velocity 7.25 km/s
Sub-Earth Point 31.33°N, 148.08°E
Launch Date Mar 25, 2021
Age 4.4 years
Type internet

Technical Details

Classification Payload
Mass 148.00 kg
Dry Mass 140.00 kg
Total Mass 148.00 kg
Length 1.30 m
Diameter 1.00 m
Span 5.00 m
Shape Trapezoid+2 pan
Manufacturer ONEWUS
Bus Type ARROW
Phase Status In Orbit
Owner/State ONEWEBN/UK

Large Constellations

Loading constellations...